Location: Zagreb
(45.8000°N, 16.0000°E)
Time: 12:25:15
(UTC+01:00)

Vanguard 1 Rocket - Pass Details

Date: 05 October 2020
Orbit: 656 x 4221 km, 34.3° (Epoch: 28 October)

Event Time Altitude Azimuth Distance (km) Brightness Sun altitude
Rises 17:11:27 0° 232° (SW) 4,182 12.4 12.1°
Reaches altitude 10° 17:13:54 10° 225° (SW) 3,526 11.8 11.7°
Maximum altitude 17:22:41 43° 157° (SSE) 2,776 10.0 10.3°
Drops below altitude 10° 17:38:51 10° 94° (E) 6,339 11.1 7.6°
Sets 17:45:09 0° 90° (E) 7,833 11.5 6.5°
